Regional Weather Roundup
Issued by NWS

Home | Current Version | Previous Version | Text Only | Print | Product List | Glossary On
Versions: 1 2 3 4 5 6 7 8 9 10 11 12 13 14 15 16 17 18 19 20 21 22 23 24 25 26 27 28 29 30 31 32 33 34 35 36 37 38 39 40 41 42 43 44 45 46 47 48 49 50
000
ASUS44 KLIX 251612
RWRLA
LOUISIANA WEATHER ROUNDUP
NATIONAL WEATHER SERVICE NEW ORLEANS LA
1100 AM CDT MON MAY 25 2015

NOTE: "FAIR" INDICATES FEW OR NO CLOUDS BELOW 12,000 FEET WITH NO
      SIGNIFICANT WEATHER AND/OR OBSTRUCTIONS TO VISIBILITY.
      SKY/WX - SKY CONDITION AND SIGNIFICANT WEATHER.
      TMP - AIR TEMPERATURE.    DP   - DEWPOINT TEMPERATURE.
      RH  - RELATIVE HUMIDITY.  PRES - PRESSURE.
      HX  - HEAT INDEX.         WCI  - WIND CHILL INDEX.

*  THESE STATIONS ARE NOT NWS OR FAA STATIONS AND ARE NOT UNDER
   NWS QUALITY CONTROL.

LAZ040-048-061>063-065-066-069-251700-
SOUTHEAST LOUISIANA

CITY           SKY/WX    TMP DP  RH WIND       PRES   REMARKS
N.O. AUDUBON     N/A     85  76  75 MISG        N/A
N.O. INTL ARPT CLOUDY    83  74  74 S14       30.08R
N.O. LAKEFRONT CLOUDY    85  74  69 S12       30.09R
SLIDELL        CLOUDY    83  77  82 S12       30.09R
BATON ROUGE    PTSUNNY   85  75  72 SE12      30.06F
BOOTHVILLE     CLOUDY    81  76  84 SE12G21   30.11R HAZE
BELLE CHASSE   CLOUDY    83  74  74 S12       30.08S
BOGALUSA*        N/A     82  75  80 SE6       30.11R
GALLIANO*      PTSUNNY   84  75  73 MISG      30.09R
NEW ROADS*     FAIR      83  73  71 S10       30.06S
GONZALES*      PTSUNNY   84  77  81 S12       30.06S
HAMMOND*       CLOUDY    84  75  74 SE6       30.10R
HOUMA*         PTSUNNY   82  77  83 S5        30.07S
PORT FOURCHON* MOSUNNY   84  77  79 SE13G21   30.09S

$$

LAZ041-044-053-054-251700-
SOUTHWEST LOUISIANA

CITY           SKY/WX    TMP DP  RH WIND       PRES   REMARKS
LAKE CHARLES   SUNNY     85  72  65 S14       30.02S
LAFAYETTE      MOSUNNY   84  73  69 S10       30.05R
PATTERSON      PTSUNNY   84  73  70 S15       30.07S
SALT POINT       N/A     84  78  82 VRB5      30.04S HX  95
NEW IBERIA     PTSUNNY   84  75  74 S12       30.06R
CHENAULT AIRPK PTSUNNY   84  73  70 SE12      30.03S

$$

LAZ027-028-251700-
CENTRAL LOUISIANA

CITY           SKY/WX    TMP DP  RH WIND       PRES   REMARKS
FORT POLK      PTSUNNY   81  73  78 S8G18     30.02F
ALEXANDRIA INT MOSUNNY   81  73  76 SE7       30.03S
ALEXANDRIA     MOSUNNY   82  71  69 S10       30.05S

$$

LAZ001-002-251700-
NORTHWEST LOUISIANA

CITY           SKY/WX    TMP DP  RH WIND       PRES   REMARKS
SHREVEPORT     MOSUNNY   81  69  67 SE9       29.99F
BARKSDALE AFB  MOSUNNY   78  70  75 SE10      30.00F
DTN SHREVEPORT MOSUNNY   78  69  73 SE13G20   29.99F

$$

LAZ014-016-251700-
NORTHEAST LOUISIANA

CITY           SKY/WX    TMP DP  RH WIND       PRES   REMARKS
MONROE         PTSUNNY   78  71  79 S8        30.05S
TALLULAH       CLOUDY    79  71  76 S8        30.07R

$$




USA.gov is the U.S. government's official web portal to all federal, state and local government web resources and services.